Tracking 22081 objects as of 4-Dec-2020
HD Live streaming from Space Station
objects crossing your sky now

TDRS 10

Track TDRS 10 now!
TDRS 10 is classified as:


NORAD ID: 27566
Int'l Code: 2002-055A
Perigee: 35,763.7 km
Apogee: 35,824.4 km
Inclination: 7.2 °
Period: 1,436.1 minutes
Semi major axis: 42165 km
RCS: 5.0118 m2 (large)
Launch date: December 5, 2002
Source: United States (US)
Launch site: AIR FORCE EASTERN TEST RANGE (AFETR)

Tracking and communications with space shuttle, other missions.
aabbcc
Your satellite tracking list
Your tracking list is empty




NASA's NSSDC Master Catalog

Two Line Element Set (TLE):
1 27566U 02055A   20338.50727516  .00000107  00000-0  00000-0 0  9995
2 27566   7.1994  52.8220 0007199 267.8403 123.8678  1.00270815 65968
Source of the keplerian elements: AFSPC